User: anonymous   Login
Location: Unspecified
(0.0000°N, 0.0000°E)
Time: 11:23:03
(UTC+00:00)
Language:

Polar BEAR P87-1 - Orbit

View from above orbital plane
View from above orbital plane
View from above satellite
View from above satellite

Ground track
Ground track

The orbit data is extracted from the following two-line orbital elements,

1 17070U 86088A   19081.73381500  .00000049  00000-0  39346-4 0  9993
2 17070  89.5224 295.2410 0037734 330.5558 141.6439 13.74774266622446
Epoch (UTC): 22 March 2019 17:36:41
Eccentricity: 0.0037734
inclination: 89.5224°
perigee height: 955 km
apogee height: 1010 km
right ascension of ascending node: 295.2410°
argument of perigee: 330.5558°
revolutions per day: 13.74774266
mean anomaly at epoch: 141.6439°
orbit number at epoch: 62244

The dashed part of the orbit path shows where the satellite is in the earth's shadow,  

DLR